Location: Newark
(53.3333°N, 83.7500°E)
Time: 10:15:07
(UTC+00:00)

Vanguard 2 - Pass Details

Date: 20 November 2019
Orbit: 553 x 2938 km, 32.9° (Epoch: 05 December)

Event Time Altitude Azimuth Distance (km) Brightness Sun altitude
Rises 02:36:39 0° 220° (SW) 5,364 11.9 3.8°
Reaches altitude 10° 02:43:10 10° 197° (SSW) 3,738 11.4 4.5°
Maximum altitude 02:46:44 13° 174° (S) 3,161 11.5 4.9°
Drops below altitude 10° 02:49:46 10° 150° (SSE) 3,052 12.4 5.2°
Sets 02:53:53 0° 122° (ESE) 3,577 13.0 5.7°
